COSMOS 397 DEB, 5197

Orbit data source: Space-Track

COSMOS 397 DEB, 5197 is space debris in LEO originally from a launch on Thu, 25 Feb 1971 UTC launched from the Tyuratam Missile And Space Complex (TTMTR). Debris objects in space refer to the collection of defunct objects orbiting the Earth. Examples of debris include non-operational satellites, rocket bodies, and fragments generated from explosions, collisions, or faulty payload assembly.

Loading next visibility...
Identifier
5197, 1971-015AT
Orbit
LEO
Country
Flag of CISCIS
Related business
Manufacturer
Unknown
Mission
Spacecraft
Bus & Motor
Unknown
Mass
Unknown
Launch date (UTC)
1971-02-25 (55 years ago)
Launch vehicle
Unknown
Launch site
Tyuratam Missile And Space Complex (TTMTR)
Object type
Payload
Rocket body
Debris
Shape & HBR
Unknown shape, 0.1 m
Radar Cross Section
Small (<0.1 m²)

Expand to show TLE details & history
Last TLE update: 18 hours ago

TLE from 18 hours ago
0 COSMOS 397 DEB
1 05197U 71015AT  25349.79909137  .00001670  00000-0  64656-3 0  9998
2 05197  65.5345 130.9340 0691399  77.8799 289.8794 13.46993482609096
Epoch: 2025-12-15T19:10Z
TLE epoch observation values (Epoch: 2025-12-15T19:10:41.494Z)
Latitude
0.00005°
Longitude
118.56865°
Altitude
942.438 km
Speed
7.451 km/s
True Right ascension
08h 43m 44s
True Declination
0° 00' 00"
Sunlit
Object was in full shadow at epoch
Visualization orbit readout
Latitude
Unknown
Longitude
Unknown
Altitude
Unknown
Speed
Unknown
Apparent Right ascension
Unknown
Apparent Declination
Unknown
Sunlit
N/A
Visualization observer readout
Local Sidereal Time
11:30:57
Azimuth
Unknown
Elevation
Unknown
Doppler factor
Unknown
Orbital elements
Apogee altitude
1,597.689 km
Perigee altitude
566.116 km
Semi-major axis
7,460.039 km
Eccentricity
0.06914
Inclination
65.5345°
RAAN
130.934°
Arg. of periapsis
77.8799°
True anomaly
282.22626°
Mean anomaly
289.8794°
Eccentric anomaly
286.07283°
Mean motion
3.36846 °/min
Orbital period
106.87 mins
BSTAR
0.00064656
Loading maneuver chart data...
Computing Atmospheric mass density...
Loading historical data...
Loading historical data...
Loading historical data...
Loading historical data...
Loading historical data...
Loading historical data...
Loading historical data...

Documentation

Showing up to 5 results
|